Shawano, WI

9:47 AM CDT on September 19, 2017 (GMT -0500)
Shawano

Weather History for KEZS - January, 2014

Change the Weather History Date:

Sunday, January 19, 2014

  Actual Average (KCLI) Record (KCLI)
Temperature  
Mean Temperature 22 °F -  
Max Temperature 31 °F 25 °F 44 °F (1986)
Min Temperature 13 °F 4 °F -21 °F (1984)
Degree Days  
Heating Degree Days 43    
Moisture  
Dew Point 19 °F    
Average Humidity 78    
Maximum Humidity 89    
Minimum Humidity 71    
Precipitation  
Precipitation 0.00 in - - ()
Sea Level Pressure  
Sea Level Pressure 29.52 in    
Wind  
Wind Speed 8 mph (WSW)    
Max Wind Speed 17 mph    
Max Gust Speed 24 mph    
Visibility 10 miles    
Events      
Averages and records for this station are not official NWS values.
T = Trace of Precipitation, MM = Missing Value Source: NWS Daily Summary

Daily Weather History Graph

Daily Weather History Graph

Search for Another Location

Airport or City:

Trip Planner

Search our weather history database for the weather conditions in past years. The results will help you decide how hot, cold, wet, or windy it might be!

Date:

Astronomy

Jan. 19, 2014 Rise Set
Actual Time 7:25 AM CST 4:44 PM CST
Civil Twilight 6:53 AM CST 5:17 PM CST
Nautical Twilight 6:17 AM CST 5:53 PM CST
Astronomical Twilight 5:42 AM CST 6:27 PM CST
Moon 8:33 PM CST 8:45 AM CST
Length of Visible Light 10h 23m
Length of Day
9h 19m
Waning Gibbous, 89% of the Moon is Illuminated
Jan 19
Waning Gibbous
Jan 23
Last Quarter
Jan 30
New
Feb 6
First Quarter
Feb 14
Full

Hourly Weather History & Observations

Time (CST) Temp. Windchill Dew Point Humidity Pressure Visibility Wind Dir Wind Speed Gust Speed Precip Events Conditions
12:15 AM 13.1 °F 5.4 °F 8.4 °F 82% 29.66 in 10.0 mi SW 4.6 mph - N/A   Overcast
12:35 AM 14.2 °F 3.1 °F 9.3 °F 81% 29.65 in 10.0 mi SW 8.1 mph - N/A   Overcast
12:55 AM 14.9 °F 4.0 °F 9.5 °F 79% 29.64 in 10.0 mi SW 8.1 mph - N/A   Overcast
1:15 AM 15.4 °F 3.8 °F 10.0 °F 79% 29.64 in 10.0 mi SW 9.2 mph - N/A   Overcast
1:35 AM 16.3 °F 5.7 °F 10.8 °F 79% 29.63 in 10.0 mi SW 8.1 mph - N/A   Overcast
1:55 AM 17.2 °F 7.8 °F 11.3 °F 78% 29.62 in 10.0 mi SW 6.9 mph - N/A   Overcast
2:15 AM 17.8 °F 8.5 °F 12.2 °F 79% 29.61 in 10.0 mi SW 6.9 mph - N/A   Overcast
2:35 AM 18.5 °F 8.4 °F 13.1 °F 79% 29.59 in 7.0 mi SW 8.1 mph - N/A   Overcast
2:55 AM 19.4 °F 10.4 °F 14.2 °F 80% 29.57 in 7.0 mi SW 6.9 mph - N/A   Mostly Cloudy
3:15 AM 20.5 °F 10.8 °F 15.3 °F 80% 29.57 in 10.0 mi WSW 8.1 mph - N/A   Clear
3:35 AM 21.4 °F 11.1 °F 15.8 °F 79% 29.55 in 10.0 mi WSW 9.2 mph 16.1 mph N/A   Clear
3:55 AM 22.1 °F 11.3 °F 15.8 °F 77% 29.53 in 10.0 mi WSW 10.4 mph 17.3 mph N/A   Mostly Cloudy
4:15 AM 22.8 °F 11.5 °F 15.8 °F 74% 29.52 in 10.0 mi WSW 11.5 mph - N/A   Overcast
4:35 AM 22.5 °F 11.7 °F 15.6 °F 75% 29.51 in 10.0 mi WSW 10.4 mph 17.3 mph N/A   Overcast
4:55 AM 22.1 °F 8.5 °F 15.6 °F 76% 29.49 in 10.0 mi WSW 16.1 mph 24.2 mph N/A   Overcast
5:15 AM 21.9 °F 7.8 °F 15.8 °F 77% 29.48 in 10.0 mi WSW 17.3 mph 20.7 mph N/A   Overcast
5:35 AM 21.9 °F 8.7 °F 15.8 °F 77% 29.46 in 10.0 mi WSW 15.0 mph 24.2 mph N/A   Overcast
5:55 AM 22.1 °F 8.9 °F 16.2 °F 78% 29.47 in 10.0 mi WSW 15.0 mph 20.7 mph N/A   Overcast
6:15 AM 22.6 °F 10.7 °F 16.5 °F 77% 29.48 in 10.0 mi WSW 12.7 mph 20.7 mph N/A   Overcast
6:35 AM 22.8 °F 10.9 °F 16.7 °F 77% 29.48 in 10.0 mi WSW 12.7 mph 19.6 mph N/A   Overcast
6:55 AM 23.0 °F 13.1 °F 17.2 °F 79% 29.49 in 10.0 mi WSW 9.2 mph 16.1 mph N/A   Overcast
7:15 AM 23.5 °F 13.0 °F 17.6 °F 78% 29.48 in 10.0 mi WSW 10.4 mph - N/A   Overcast
7:35 AM 23.9 °F 15.0 °F 18.0 °F 78% 29.48 in 10.0 mi WSW 8.1 mph - N/A   Overcast
7:55 AM 24.8 °F 15.3 °F 18.9 °F 78% 29.48 in 10.0 mi WSW 9.2 mph 16.1 mph N/A   Overcast
8:15 AM 25.5 °F 15.5 °F 19.2 °F 77% 29.48 in 10.0 mi West 10.4 mph 17.3 mph N/A   Overcast
8:35 AM 25.7 °F 16.4 °F 19.4 °F 77% 29.49 in 10.0 mi West 9.2 mph 16.1 mph N/A   Overcast
8:55 AM 26.1 °F 16.8 °F 19.4 °F 76% 29.49 in 10.0 mi WSW 9.2 mph - N/A   Overcast
9:15 AM 26.1 °F 15.6 °F 19.4 °F 76% 29.49 in 10.0 mi WSW 11.5 mph - N/A   Overcast
9:35 AM 26.2 °F 16.4 °F 19.4 °F 75% 29.49 in 10.0 mi WSW 10.4 mph 20.7 mph N/A   Overcast
9:55 AM 26.4 °F 17.3 °F 19.8 °F 76% 29.49 in 10.0 mi WSW 9.2 mph - N/A   Overcast
10:15 AM 26.6 °F 16.2 °F 20.1 °F 77% 29.49 in 10.0 mi WSW 11.5 mph - N/A   Overcast
10:35 AM 27.3 °F 17.7 °F 20.3 °F 75% 29.50 in 10.0 mi West 10.4 mph 16.1 mph N/A   Overcast
10:55 AM 27.9 °F 19.8 °F 20.8 °F 75% 29.50 in 10.0 mi WSW 8.1 mph - N/A   Overcast
11:15 AM 28.0 °F 17.5 °F 21.2 °F 76% 29.50 in 10.0 mi West 12.7 mph 16.1 mph N/A   Overcast
11:35 AM 28.4 °F 19.7 °F 21.6 °F 76% 29.49 in 10.0 mi WSW 9.2 mph - N/A   Overcast
11:55 AM 28.9 °F 21.9 °F 21.9 °F 75% 29.49 in 10.0 mi West 6.9 mph - N/A   Overcast
12:15 PM 29.5 °F 22.5 °F 22.1 °F 74% 29.48 in 10.0 mi West 6.9 mph - N/A   Overcast
12:35 PM 29.8 °F 23.0 °F 22.5 °F 74% 29.46 in 10.0 mi WSW 6.9 mph - N/A   Overcast
12:55 PM 30.6 °F 24.7 °F 22.8 °F 73% 29.44 in 10.0 mi WSW 5.8 mph - N/A   Overcast
1:15 PM 30.6 °F 23.1 °F 22.6 °F 72% 29.45 in 10.0 mi WSW 8.1 mph - N/A   Overcast
1:35 PM 30.7 °F 24.9 °F 23.0 °F 73% 29.44 in 10.0 mi WSW 5.8 mph - N/A   Overcast
1:55 PM 30.7 °F 24.9 °F 22.8 °F 72% 29.45 in 10.0 mi SW 5.8 mph - N/A   Overcast
2:15 PM 30.7 °F 23.3 °F 22.8 °F 72% 29.44 in 10.0 mi WSW 8.1 mph - N/A   Overcast
2:35 PM 31.1 °F 27.7 °F 23.0 °F 72% 29.44 in 10.0 mi WSW 3.5 mph - N/A   Overcast
2:55 PM 31.1 °F 25.4 °F 23.0 °F 72% 29.43 in 10.0 mi WSW 5.8 mph - N/A   Overcast
3:15 PM 31.5 °F - 23.2 °F 71% 29.43 in 10.0 mi Calm Calm - N/A   Overcast
3:35 PM 31.3 °F 27.9 °F 23.4 °F 72% 29.44 in 10.0 mi NW 3.5 mph - N/A   Overcast
3:55 PM 31.3 °F - 23.5 °F 73% 29.47 in 10.0 mi Calm Calm - N/A   Overcast
4:15 PM 31.1 °F - 23.7 °F 74% 29.47 in 10.0 mi Calm Calm - N/A   Overcast
4:35 PM 31.1 °F - 23.7 °F 74% 29.49 in 10.0 mi Calm Calm - N/A   Overcast
4:55 PM 31.1 °F - 23.5 °F 74% 29.47 in 10.0 mi Calm Calm - N/A   Overcast
5:15 PM 31.1 °F - 23.5 °F 74% 29.47 in 10.0 mi Calm Calm - N/A   Overcast
5:35 PM 30.2 °F - 24.3 °F 79% 29.46 in 10.0 mi Calm Calm - N/A   Overcast
5:55 PM 30.7 °F - 23.9 °F 76% 29.47 in 10.0 mi Calm Calm - N/A   Overcast
6:15 PM 30.7 °F - 23.7 °F 75% 29.48 in 10.0 mi Calm Calm - N/A   Overcast
7:15 PM 29.8 °F - 24.6 °F 81% 29.49 in 10.0 mi Calm Calm - N/A   Overcast
7:35 PM 30.2 °F - 24.3 °F 79% 29.50 in 10.0 mi Calm Calm - N/A   Overcast
7:55 PM 30.7 °F - 24.3 °F 77% 29.50 in 10.0 mi Calm Calm - N/A   Overcast
8:15 PM 29.5 °F - 24.8 °F 83% 29.50 in 7.0 mi Calm Calm - N/A   Overcast
8:35 PM 29.3 °F - 25.2 °F 85% 29.50 in 10.0 mi Calm Calm - N/A   Overcast
8:55 PM 25.7 °F 14.0 °F 21.9 °F 86% 29.53 in 3.0 mi ENE 13.8 mph 19.6 mph N/A   Overcast
9:15 PM 23.5 °F 13.0 °F 20.7 °F 89% 29.55 in 5.0 mi NE 10.4 mph 18.4 mph N/A   Overcast
9:35 PM 22.8 °F 11.5 °F 19.2 °F 86% 29.56 in 10.0 mi ENE 11.5 mph - N/A   Overcast
9:55 PM 21.7 °F 10.8 °F 17.8 °F 85% 29.57 in 10.0 mi ENE 10.4 mph - N/A   Overcast
10:15 PM 21.2 °F 10.1 °F 17.6 °F 86% 29.58 in 10.0 mi ENE 10.4 mph - N/A   Overcast
10:35 PM 20.8 °F 11.2 °F 17.1 °F 85% 29.60 in 10.0 mi NE 8.1 mph - N/A   Overcast
10:55 PM 20.3 °F 8.3 °F 16.0 °F 83% 29.62 in 10.0 mi NNE 11.5 mph - N/A   Overcast
11:15 PM 20.1 °F 9.5 °F 14.4 °F 78% 29.63 in 10.0 mi NE 9.2 mph - N/A   Overcast
11:35 PM 20.1 °F 11.3 °F 14.7 °F 80% 29.62 in 10.0 mi East 6.9 mph - N/A   Overcast
11:55 PM 19.6 °F 13.0 °F 14.7 °F 81% 29.64 in 10.0 mi NE 4.6 mph - N/A   Overcast